Flag for U.S.A. Weather past 2 weeks in Louisville, Kentucky, U.S.A.

Now
89 °F

Scattered clouds.


Feels Like: 94 °F
Forecast: 72 / 94 °F
Wind: 6 mph from Southeast

Location: Standiford Field

Current Time: Jul 22, 2014 at 2:13:03 PM

Latest Report: Jul 22, 2014 at 12:56 PM


Visibility: 10 mi

Pressure: 30.07 "Hg

Humidity: 52%

Dew point: 69 °F

Location of LouisvilleLocation

Historic Weather in Louisville — Graph

°F

Louisville temperature yesterday

Maximum temperature yesterday: 90 °F (at 4:56 PM)
Minimum temperature yesterday: 69 °F (at 5:56 AM)
Average temperature yesterday: 80 °F

Past Weeks' High & Low Weather Summary

 TemperatureHumidityPressure
High97 °F (Jul 13, 3:56 PM)97% (Jul 18, 11:56 PM)30.19 "Hg (Jul 18, 11:56 PM)
Low58 °F (Jul 16, 5:56 AM)31% (Jul 17, 12:56 PM)29.80 "Hg (Jul 8, 2:56 AM)
Average76 °F64%30.01 "Hg
* Reported Jul 7 12:56 PM — Jul 22 12:56 PM, Louisville, Weather by CustomWeather, © 2014

Note: Actual official high and low records may vary slightly from our data, if they occured in-between our weather recording intervals... More about our weather records

Advertising

Louisville weather history for previous 24 hours

 ConditionsComfort  
Time TempWeatherWind HumidityBarometerVisibility
12:56 PM
Jul 22
89 °FScattered clouds.6 mph52%30.07 "Hg10 mi
11:56 AM86 °FPassing clouds.No wind59%30.07 "Hg10 mi
10:56 AM84 °FPassing clouds.3 mph65%30.08 "Hg9 mi
9:56 AM82 °FPassing clouds.No wind65%30.08 "Hg7 mi
8:56 AM76 °FHaze.No wind80%30.10 "Hg5 mi
7:56 AM74 °FHaze.No wind85%30.10 "Hg4 mi
6:56 AM71 °FFog.No wind90%30.09 "Hg4 mi
5:56 AM72 °FFog.No wind87%30.07 "Hg6 mi
4:56 AM74 °FClear.6 mph82%30.05 "Hg7 mi
3:56 AM72 °FPassing clouds.5 mph87%30.06 "Hg7 mi
2:56 AM73 °FPassing clouds.3 mph88%30.05 "Hg7 mi
1:56 AM74 °FPassing clouds.No wind82%30.06 "Hg8 mi
12:56 AM76 °FPassing clouds.3 mph77%30.07 "Hg8 mi
11:56 PM
Jul 21
79 °FClear.5 mph65%30.06 "Hg10 mi
10:56 PM80 °FClear.5 mph62%30.06 "Hg10 mi
9:56 PM82 °FPassing clouds.5 mph58%30.05 "Hg10 mi
8:56 PM84 °FPassing clouds.8 mph53%30.04 "Hg10 mi
7:56 PM86 °FPassing clouds.8 mph49%30.03 "Hg10 mi
6:56 PM88 °FPassing clouds.No wind45%30.03 "Hg10 mi
5:56 PM89 °FScattered clouds.3 mph43%30.03 "Hg10 mi
4:56 PM90 °FPartly sunny.10 mph43%30.04 "Hg10 mi
3:56 PM89 °FPartly sunny.7 mph45%30.04 "Hg10 mi
2:56 PM86 °FPartly sunny.No wind49%30.05 "Hg10 mi
Weather by CustomWeather, © 2014

See weather overviewHow to use our weather pages